Flag for Germany Weather past 2 weeks in Hof (Saale), Bavaria, Germany

Now
52 °F

Overcast.


Feels Like: 51 °F
Forecast: 40 / 54 °F
Wind: 5 mph from North

Location: Hof

Current Time: May 26, 2015 at 12:51:21 PM

Latest Report: May 26, 2015 at 12:00 PM


Visibility: 19 mi

Pressure: 30.01 "Hg

Humidity: 61%

Dew point: 39 °F

Location of Hof (Saale)Location

Historic Weather in Hof (Saale) — Graph

°F

Hof (Saale) temperature yesterday

Maximum temperature yesterday: 59 °F (at 4:00 PM)
Minimum temperature yesterday: 51 °F (at 6:00 PM)
Average temperature yesterday: 54 °F

Past Weeks' High & Low Weather Summary

 TemperatureHumidityPressure
High77 °F (May 12, 6:00 PM)100% (May 21, 2:00 AM)30.38 "Hg (May 21, 2:00 AM)
Low36 °F (May 22, 6:00 AM)30% (May 13, 2:00 PM)29.68 "Hg (May 18, 8:00 PM)
Average53 °F66%30.04 "Hg
* Reported May 11 12:00 Noon — May 26 12:00 Noon, Hof (Saale), Weather by CustomWeather, © 2015

Note: Actual official high and low records may vary slightly from our data, if they occured in-between our weather recording intervals... More about our weather records

Advertising

Hof (Saale) weather history for previous 24 hours

 ConditionsComfort  
Time TempWeatherWind HumidityBarometerVisibility
12:00 PM
Tue, May 26
52 °FOvercast.5 mph61%30.01 "Hg19 mi
10:00 AM49 °FPartly sunny.6 mph67%30.01 "Hg25 mi
9:00 AM48 °FPassing clouds.5 mph71%30.00 "Hg10 mi
8:00 AM46 °FOvercast.3 mph88%29.99 "Hg11 mi
7:00 AM45 °FOvercast.2 mph93%29.99 "Hg10 mi
4:00 AM46 °FLight freezing rain. Low clouds.2 mph95%29.96 "Hg5 mi
3:00 AM47 °FLight freezing rain. Low clouds.3 mph98%29.94 "Hg2 mi
2:00 AM49 °FLight rain. Low clouds.5 mph98%29.92 "Hg2 mi
1:00 AM50 °FDrizzle. Low clouds.3 mph99%29.92 "Hg4 mi
12:00 AM50 °FFog.2 mph94%29.92 "Hg4 mi
10:00 PM
Mon, May 25
51 °FOvercast.1 mph92%29.92 "Hg6 mi
9:00 PM51 °FDrizzle. Overcast.2 mph95%29.90 "Hg6 mi
8:00 PM51 °FOvercast.1 mph96%29.90 "Hg5 mi
7:00 PM51 °FLight rain. Overcast.1 mph92%29.90 "Hg6 mi
6:00 PM51 °FLight rain. Low clouds.1 mph82%29.92 "Hg11 mi
5:00 PM54 °FLight rain. Overcast.6 mph85%29.90 "Hg4 mi
4:00 PM59 °FOvercast.2 mph70%29.88 "Hg19 mi
3:00 PM54 °FOvercast.2 mph85%29.92 "Hg11 mi
2:00 PM53 °FDrizzle. Overcast.2 mph89%29.94 "Hg7 mi
1:00 PM53 °FLight rain. Low clouds.1 mph88%29.95 "Hg6 mi
12:00 PM53 °FDrizzle. Low clouds.1 mph89%29.96 "Hg9 mi
Weather by CustomWeather, © 2015

See weather overviewHow to use our weather pages